Weather History for Guymon, OK

Change the Weather History Date:

Wednesday, April 4, 2012

  Actual Average Record
Temperature  
Mean Temperature 46 °F 52 °F  
Max Temperature 54 °F 67 °F 89 °F (2005)
Min Temperature 37 °F 37 °F 25 °F (2002)
Degree Days  
Heating Degree Days 19 13  
Month to date heating degree days 42 55  
Since 1 July heating degree days 3640 4103  
Cooling Degree Days 0 0  
Month to date cooling degree days 6 0  
Year to date cooling degree days 33 2  
Moisture  
Dew Point 41 °F    
Average Humidity 82    
Maximum Humidity 92    
Minimum Humidity 71    
Precipitation  
Precipitation T in 0.04 in 0.76 in (1999)
Month to date precipitation 0.54 0.19  
Year to date precipitation 2.24 2.49  
Snow  
Snow 0.00 in - - ()
Month to date snowfall 0.0  
Since 1 July snowfall 9.1  
Snow Depth 0.00 in    
Sea Level Pressure  
Sea Level Pressure 29.87 in    
Wind  
Wind Speed 12 mph (NW)    
Max Wind Speed 25 mph    
Max Gust Speed 31 mph    
Visibility 10 miles    
Events      
T = Trace of Precipitation, MM = Missing Value Source: NWS Daily Summary

Daily Weather History Graph

Daily Weather History Graph

Search for Another Location

Airport:

Trip Planner

Search our weather history database for the weather conditions in past years. The results will help you decide how hot, cold, wet, or windy it might be!

Date:

Astronomy

Apr. 04, 2012 Rise Set
Actual Time 7:26 AM CDT 8:11 PM CDT
Civil Twilight 7:00 AM CDT 8:37 PM CDT
Nautical Twilight 6:29 AM CDT 9:08 PM CDT
Astronomical Twilight 5:58 AM CDT 9:40 PM CDT
Moon 6:09 PM CDT (4/4) 5:46 AM CDT (4/4)
Length of Visible Light 13h 36m
Length of Day
12h 44m
Waxing Gibbous, 94% of the Moon is Illuminated
Apr 4
Waxing Gibbous
Apr 6
Full
Apr 13
Last Quarter
Apr 21
New
Apr 29
First Quarter

Hourly Weather History & Observations

Time (CDT) Temp. Windchill Dew Point Humidity Pressure Visibility Wind Dir Wind Speed Gust Speed Precip Events Conditions
12:53 AM 39.9 °F 33.4 °F 36.0 °F 86% 29.97 in 10.0 mi WNW 10.4 mph - N/A   Overcast
1:53 AM 39.9 °F 32.5 °F 36.0 °F 86% 29.94 in 10.0 mi WNW 12.7 mph - N/A   Overcast
2:53 AM 39.9 °F 32.9 °F 37.0 °F 89% 29.92 in 10.0 mi WNW 11.5 mph - N/A   Overcast
4:53 AM 39.0 °F 33.4 °F 36.0 °F 89% 29.90 in 10.0 mi WNW 8.1 mph - N/A   Mostly Cloudy
5:53 AM 37.0 °F 31.6 °F 35.1 °F 93% 29.89 in 10.0 mi WNW 6.9 mph - N/A   Clear
6:53 AM 37.0 °F 31.0 °F 35.1 °F 93% 29.88 in 10.0 mi WNW 8.1 mph - N/A   Clear
7:53 AM 37.9 °F 32.1 °F 35.1 °F 89% 29.87 in 10.0 mi West 8.1 mph - N/A   Overcast
8:08 AM 37.4 °F 31.4 °F 35.6 °F 93% 29.89 in 10.0 mi WNW 8.1 mph - N/A   Overcast
8:16 AM 39.2 °F 33.0 °F 35.6 °F 87% 29.89 in 10.0 mi WNW 9.2 mph - N/A   Overcast
8:53 AM 41.0 °F 34.3 °F 37.9 °F 89% 29.87 in 10.0 mi NW 11.5 mph - N/A   Overcast
10:53 AM 46.0 °F 40.2 °F 41.0 °F 83% 29.88 in 10.0 mi NW 12.7 mph - N/A   Overcast
11:53 AM 48.0 °F - 42.1 °F 80% 29.87 in 10.0 mi NW 13.8 mph - N/A   Overcast
12:53 PM 48.9 °F - 43.0 °F 80% 29.86 in 10.0 mi NW 13.8 mph - 0.00 in   Overcast
1:53 PM 51.1 °F - 43.0 °F 74% 29.83 in 10.0 mi WNW 16.1 mph - N/A   Overcast
2:53 PM 51.1 °F - 44.1 °F 77% 29.83 in 10.0 mi WNW 21.9 mph 27.6 mph N/A   Overcast
3:16 PM 51.8 °F - 44.6 °F 76% 29.85 in 10.0 mi NW 21.9 mph - 0.00 in   Overcast
3:53 PM 53.1 °F - 46.0 °F 77% 29.82 in 10.0 mi NW 21.9 mph 27.6 mph 0.00 in   Mostly Cloudy
4:39 PM 51.8 °F - 44.6 °F 76% 29.85 in 10.0 mi NW 19.6 mph 27.6 mph N/A   Overcast
5:06 PM 51.8 °F - 44.6 °F 76% 29.85 in 10.0 mi NW 16.1 mph 24.2 mph N/A   Overcast
5:53 PM 51.1 °F - 44.1 °F 77% 29.83 in 10.0 mi NW 18.4 mph - N/A   Overcast
6:53 PM 51.1 °F - 44.1 °F 77% 29.83 in 10.0 mi North 13.8 mph - N/A   Overcast
7:53 PM 51.1 °F - 43.0 °F 74% 29.83 in 10.0 mi NNW 13.8 mph - N/A   Overcast
8:53 PM 50.0 °F - 44.1 °F 80% 29.83 in 10.0 mi NNW 9.2 mph - N/A   Overcast
9:22 PM 46.4 °F 42.4 °F 42.8 °F 87% 29.87 in 10.0 mi North 8.1 mph - N/A   Scattered Clouds
9:53 PM 46.0 °F 43.9 °F 43.0 °F 89% 29.85 in 10.0 mi NNW 4.6 mph - N/A   Clear
10:53 PM 46.0 °F 43.9 °F 43.0 °F 89% 29.88 in 10.0 mi WNW 4.6 mph - N/A   Clear
11:37 PM 44.6 °F 41.4 °F 42.8 °F 93% 29.90 in 10.0 mi West 5.8 mph - N/A   Mostly Cloudy
11:53 PM 46.0 °F 42.5 °F 43.0 °F 89% 29.87 in 10.0 mi WNW 6.9 mph - N/A   Overcast